GW4074 Weather Reports


Display with metric or nautical units.
time (UTC)temp
F
wind
direction
speed
MPH
gust
MPH
rain 1hr
in
rain 24hr
in
rain mn
in
humidity
%
barometer
mb
20260902130227 54 18 4.0 5.0 0.00 0.00 0.00 97 1005.3
20260902125722 54 108 3.0 6.0 0.00 0.00 0.00 96 1005.4
20260902125214 54 68 0.0 2.0 0.00 0.00 0.00 96 1005.5
20260902124710 54 121 2.0 6.0 0.00 0.00 0.00 96 1005.5
20260902124209 55 175 0.0 9.0 0.00 0.00 0.00 95 1005.7
20260902123704 54 279 0.0 3.0 0.00 0.00 0.00 95 1005.6
20260902123201 55 145 2.0 5.0 0.00 0.00 0.00 94 1005.5
20260902122659 55 168 2.0 4.0 0.00 0.00 0.00 94 1005.7
20260902122156 55 348 4.0 6.0 0.00 0.00 0.00 94 1005.8
20260902121650 55 352 3.0 6.0 0.00 0.00 0.00 93 1005.7
20260902121144 55 0 1.0 4.0 0.00 0.00 0.00 92 1005.8
20260902120641 55 39 4.0 4.0 0.00 0.00 0.00 92 1005.7
20260902120137 55 135 3.0 3.0 0.00 0.00 0.00 92 1006.0
20260902115631 55 18 0.0 2.0 0.00 0.00 0.00 91 1005.9
20260902115127 55 87 4.0 8.0 0.00 0.00 0.00 90 1006.0
20260902114623 56 80 2.0 6.0 0.00 0.00 0.00 90 1005.8
20260902114123 56 52 2.0 4.0 0.00 0.00 0.00 90 1006.2
20260902113613 55 192 1.0 2.0 0.00 0.00 0.00 91 1006.0
20260902113108 55 36 1.0 4.0 0.00 0.00 0.00 90 1006.3
20260902112604 55 28 2.0 5.0 0.00 0.00 0.00 90 1006.3
20260902112100 55 307 0.0 3.0 0.00 0.00 0.00 89 1006.5
20260902111556 56 335 2.0 2.0 0.00 0.00 0.00 89 1006.6
20260902111051 57 29 4.0 5.0 0.00 0.00 0.00 87 1006.5
20260902110547 57 128 3.0 7.0 0.00 0.00 0.00 86 1006.5
20260902110043 57 148 4.0 8.0 0.00 0.00 0.00 86 1006.5
20260902105538 57 109 2.0 8.0 0.00 0.00 0.00 87 1006.2
20260902105037 56 138 4.0 8.0 0.00 0.00 0.00 87 1006.5
20260902104533 56 107 3.0 9.0 0.00 0.00 0.00 88 1006.5
20260902104032 55 265 2.0 3.0 0.00 0.00 0.00 89 1006.5
20260902103529 56 326 1.0 3.0 0.00 0.00 0.00 90 1006.3
20260902103024 56 110 0.0 3.0 0.00 0.00 0.00 89 1006.5
20260902102520 56 353 1.0 3.0 0.00 0.00 0.00 89 1006.3
20260902102016 56 125 1.0 3.0 0.00 0.00 0.00 90 1006.4
20260902101512 56 342 2.0 4.0 0.00 0.00 0.00 90 1006.5
20260902101010 56 336 2.0 4.0 0.00 0.00 0.00 89 1006.5
20260902100505 55 231 1.0 3.0 0.00 0.00 0.00 91 1006.7
20260902100000 56 173 0.0 6.0 0.00 0.00 0.00 91 1006.4
20260902095454 56 312 1.0 3.0 0.00 0.00 0.00 90 1006.7
20260902094954 56 202 4.0 8.0 0.00 0.00 0.00 88 1006.5
20260902094449 56 124 2.0 6.0 0.00 0.00 0.00 90 1006.6
20260902093944 56 221 3.0 6.0 0.00 0.00 0.00 90 1006.5
20260902093439 56 119 6.0 7.0 0.00 0.00 0.00 90 1006.7
20260902092938 55 123 6.0 14.0 0.00 0.00 0.00 93 1006.7
20260902092434 54 132 4.0 5.0 0.00 0.00 0.00 96 1007.0
20260902091933 54 96 2.0 4.0 0.00 0.00 0.00 98 1006.7
20260902091429 53 356 3.0 4.0 0.00 0.00 0.00 99 1007.0
20260902090926 53 109 5.0 10.0 0.00 0.00 0.00 99 1007.0
20260902090425 52 113 3.0 4.0 0.00 0.00 0.00 99 1007.1
20260902085924 52 70 1.0 3.0 0.00 0.00 0.00 99 1007.1
20260902085419 52 343 2.0 2.0 0.00 0.00 0.00 99 1007.5
20260902084914 52 54 1.0 2.0 0.00 0.00 0.00 99 1007.3
20260902084411 52 66 0.0 2.0 0.00 0.00 0.00 99 1007.5
20260902083906 52 74 1.0 3.0 0.00 0.00 0.00 98 1007.4
20260902083401 53 28 2.0 3.0 0.00 0.00 0.00 98 1007.5
20260902082856 53 31 1.0 2.0 0.00 0.00 0.00 98 1007.7
20260902082352 53 82 2.0 2.0 0.00 0.00 0.00 98 1007.8
20260902081848 53 62 1.0 3.0 0.00 0.00 0.00 98 1007.8
20260902081344 53 64 0.0 2.0 0.00 0.00 0.00 97 1007.8
20260902080839 53 61 1.0 2.0 0.00 0.00 0.00 98 1007.7
20260902080335 53 50 2.0 3.0 0.00 0.00 0.00 97 1007.7
20260902075834 53 31 2.0 2.0 0.00 0.00 0.00 97 1007.6
20260902075331 53 45 2.0 3.0 0.00 0.00 0.00 97 1008.0
20260902074826 54 30 2.0 2.0 0.00 0.00 0.00 97 1007.8
20260902074321 53 93 2.0 2.0 0.00 0.00 0.00 96 1007.9
20260902073816 53 54 2.0 2.0 0.00 0.00 0.00 96 1007.9
20260902073312 54 51 2.0 2.0 0.00 0.00 0.00 96 1007.8
20260902072808 54 37 2.0 2.0 0.00 0.00 0.00 96 1008.1
20260902072309 54 32 2.0 3.0 0.00 0.00 0.00 96 1008.0
20260902071800 54 48 3.0 4.0 0.00 0.00 0.00 96 1007.9
20260902071255 54 43 2.0 3.0 0.00 0.00 0.00 96 1007.8
20260902070751 54 31 2.0 2.0 0.00 0.00 0.00 95 1008.0
20260902070250 54 46 2.0 2.0 0.00 0.00 0.00 95 1008.2
20260902065749 54 30 1.0 2.0 0.00 0.00 0.00 95 1008.1
20260902065245 54 85 1.0 3.0 0.00 0.00 0.00 94 1008.1
20260902064740 55 8 1.0 3.0 0.00 0.00 0.00 94 1008.1
20260902064236 55 56 2.0 2.0 0.00 0.00 0.00 94 1008.2
20260902063732 55 64 2.0 2.0 0.00 0.00 0.00 94 1008.2
20260902063231 55 51 1.0 2.0 0.00 0.00 0.00 94 1008.3
20260902062725 55 54 2.0 2.0 0.00 0.00 0.00 95 1008.3
20260902062221 55 83 1.0 3.0 0.00 0.00 0.00 95 1008.2
20260902061719 55 27 1.0 2.0 0.00 0.00 0.00 94 1008.4
20260902061215 55 64 1.0 2.0 0.00 0.00 0.00 94 1008.5
20260902060712 55 103 0.0 1.0 0.00 0.00 0.00 93 1008.3
20260902060208 55 77 0.0 2.0 0.00 0.00 0.00 93 1008.5
20260902055703 56 50 1.0 1.0 0.00 0.00 0.00 93 1008.4
20260902055159 56 89 0.0 1.0 0.00 0.00 0.00 92 1008.6
20260902054654 56 63 1.0 2.0 0.00 0.00 0.00 92 1008.7
20260902054149 57 44 2.0 2.0 0.00 0.00 0.00 91 1008.7
20260902053644 57 82 1.0 2.0 0.00 0.00 0.00 90 1008.7
20260902053139 57 92 1.0 2.0 0.00 0.00 0.00 90 1008.8
20260902052638 57 68 0.0 2.0 0.00 0.00 0.00 90 1008.9
20260902052134 57 57 1.0 1.0 0.00 0.00 0.00 90 1008.7
20260902051633 57 113 0.0 2.0 0.00 0.00 0.00 89 1008.7
20260902051127 57 77 1.0 2.0 0.00 0.00 0.00 89 1008.7
20260902050622 58 60 1.0 2.0 0.00 0.00 0.00 89 1008.7
20260902050117 58 47 2.0 2.0 0.00 0.00 0.00 88 1008.9
20260902045613 57 104 1.0 2.0 0.00 0.00 0.00 89 1009.0
20260902045109 57 111 1.0 2.0 0.00 0.00 0.00 89 1009.0
20260902044609 57 97 1.0 1.0 0.00 0.00 0.00 90 1009.1
20260902044104 57 49 0.0 1.0 0.00 0.00 0.00 90 1009.0
20260902043600 57 45 1.0 2.0 0.00 0.00 0.00 91 1009.2
20260902043054 57 68 0.0 1.0 0.00 0.00 0.00 91 1009.0
20260902042554 57 37 0.0 2.0 0.00 0.00 0.00 91 1009.1
20260902042050 57 32 2.0 2.0 0.00 0.00 0.00 91 1009.0
20260902041548 57 25 1.0 2.0 0.00 0.00 0.00 90 1009.1
20260902041043 58 54 1.0 2.0 0.00 0.00 0.00 89 1009.1
20260902040538 58 87 1.0 2.0 0.00 0.00 0.00 89 1008.9
20260902040032 58 71 1.0 2.0 0.00 0.00 0.00 89 1008.9
20260902035526 58 73 1.0 2.0 0.00 0.00 0.00 89 1009.1
20260902035021 58 64 0.0 1.0 0.00 0.00 0.00 89 1009.0
20260902034515 58 50 2.0 2.0 0.00 0.00 0.00 87 1009.2
20260902034014 59 56 1.0 2.0 0.00 0.00 0.00 87 1009.0
20260902033513 59 69 2.0 2.0 0.00 0.00 0.00 87 1008.8
20260902033008 59 81 1.0 1.0 0.00 0.00 0.00 87 1009.0
20260902032502 58 107 2.0 2.0 0.00 0.00 0.00 88 1008.9
20260902031957 59 73 1.0 2.0 0.00 0.00 0.00 88 1009.0
20260902031452 59 89 1.0 2.0 0.00 0.00 0.00 87 1008.9
20260902030948 59 62 1.0 2.0 0.00 0.00 0.00 87 1009.1
20260902030448 59 42 1.0 1.0 0.00 0.00 0.00 85 1009.2
20260902025946 59 95 1.0 1.0 0.00 0.00 0.00 85 1009.1
20260902025442 59 110 1.0 2.0 0.00 0.00 0.00 85 1009.0
20260902024937 59 117 1.0 2.0 0.00 0.00 0.00 85 1009.0
20260902024433 59 103 0.0 1.0 0.00 0.00 0.00 86 1009.1
20260902023933 59 140 0.0 1.0 0.00 0.00 0.00 85 1009.0
20260902023429 59 120 2.0 2.0 0.00 0.00 0.00 85 1009.1
20260902022928 60 66 0.0 0.0 0.00 0.00 0.00 86 1009.2
20260902022423 60 127 1.0 2.0 0.00 0.00 0.00 85 1009.3
20260902021919 59 108 2.0 2.0 0.00 0.00 0.00 85 1009.2
20260902021419 60 105 1.0 1.0 0.00 0.00 0.00 86 1009.2
20260902020914 60 110 3.0 3.0 0.00 0.00 0.00 87 1009.2
20260902020411 60 89 0.0 1.0 0.00 0.00 0.00 86 1009.3
20260902015907 60 109 1.0 2.0 0.00 0.00 0.00 86 1009.3
20260902015402 60 113 2.0 2.0 0.00 0.00 0.00 86 1009.2
20260902014857 60 144 0.0 1.0 0.00 0.00 0.00 86 1009.2
20260902014354 60 135 0.0 1.0 0.00 0.00 0.00 85 1009.4
20260902013853 60 145 0.0 2.0 0.00 0.00 0.00 86 1009.3
20260902013348 60 163 1.0 2.0 0.00 0.00 0.00 87 1009.3
20260902012844 59 145 2.0 2.0 0.00 0.00 0.00 86 1009.3
20260902012339 59 119 2.0 2.0 0.00 0.00 0.00 86 1009.3
20260902011835 59 121 2.0 3.0 0.00 0.00 0.00 87 1009.3
20260902011329 59 130 2.0 3.0 0.00 0.00 0.00 87 1009.2
20260902010829 60 110 2.0 2.0 0.00 0.00 0.00 87 1009.2
20260902010324 60 154 2.0 3.0 0.00 0.00 0.00 88 1009.2
20260902005823 60 118 1.0 2.0 0.00 0.00 0.00 87 1009.2
20260902005323 60 116 2.0 2.0 0.00 0.00 0.00 87 1009.2
20260902004818 60 139 2.0 3.0 0.00 0.00 0.00 87 1009.2
20260902004313 60 123 2.0 3.0 0.00 0.00 0.00 87 1009.1
20260902003808 60 153 4.0 4.0 0.00 0.00 0.00 86 1009.2
20260902003303 60 116 0.0 2.0 0.00 0.00 0.00 86 1009.1
20260902002759 60 124 2.0 3.0 0.00 0.00 0.00 86 1009.1
20260902002258 60 121 2.0 3.0 0.00 0.00 0.00 86 1009.3
20260902001754 60 126 2.0 3.0 0.00 0.00 0.00 86 1009.3
20260902001249 60 132 2.0 3.0 0.00 0.00 0.00 87 1009.1
20260902000749 60 166 0.0 3.0 0.00 0.00 0.00 87 1009.2
20260902000244 60 156 2.0 3.0 0.00 0.00 0.00 86 1009.3
20260901235744 60 125 2.0 3.0 0.00 0.00 0.00 86 1009.2
20260901235240 60 116 2.0 4.0 0.00 0.00 0.00 86 1009.3
20260901234733 61 115 2.0 2.0 0.00 0.00 0.00 87 1009.2
20260901234227 61 137 2.0 3.0 0.00 0.00 0.00 86 1009.2
20260901233722 61 134 2.0 2.0 0.00 0.00 0.00 87 1009.3
20260901233219 61 138 3.0 4.0 0.00 0.00 0.00 86 1009.1
20260901232718 61 72 2.0 3.0 0.00 0.00 0.00 85 1009.1
20260901232214 61 117 3.0 3.0 0.00 0.00 0.00 86 1009.2
20260901231710 61 146 1.0 2.0 0.00 0.00 0.00 86 1009.1
20260901231206 61 139 2.0 3.0 0.00 0.00 0.00 86 1009.1
20260901230701 61 112 0.0 2.0 0.00 0.00 0.00 86 1009.1
20260901230201 61 146 2.0 3.0 0.00 0.00 0.00 86 1009.2
20260901225656 61 130 2.0 3.0 0.00 0.00 0.00 87 1009.4
20260901225151 61 97 1.0 4.0 0.00 0.00 0.00 86 1009.3
20260901224647 61 137 2.0 3.0 0.00 0.00 0.00 88 1009.2
20260901224143 60 157 3.0 3.0 0.00 0.00 0.00 87 1009.2
20260901223638 60 112 3.0 4.0 0.00 0.00 0.00 88 1009.1
20260901223133 60 116 2.0 3.0 0.00 0.00 0.00 88 1009.3
20260901222629 60 119 3.0 4.0 0.00 0.00 0.00 88 1009.5
20260901222126 60 114 2.0 3.0 0.00 0.00 0.00 88 1009.4
20260901221622 60 116 2.0 4.0 0.00 0.00 0.00 88 1009.3
20260901221117 60 121 2.0 4.0 0.00 0.00 0.00 88 1009.5
20260901220616 60 131 2.0 2.0 0.00 0.00 0.00 88 1009.4
20260901220115 60 131 2.0 4.0 0.00 0.00 0.00 88 1009.4
20260901215613 61 139 2.0 3.0 0.00 0.00 0.00 88 1009.4
20260901215108 61 144 2.0 2.0 0.00 0.00 0.00 87 1009.4
20260901214606 61 132 3.0 4.0 0.00 0.00 0.00 86 1009.6
20260901214101 62 160 2.0 3.0 0.00 0.00 0.00 86 1009.5
20260901213600 61 140 2.0 3.0 0.00 0.00 0.00 85 1009.6
20260901213055 61 48 2.0 2.0 0.00 0.00 0.00 85 1009.8
20260901212550 61 42 0.0 1.0 0.00 0.00 0.00 86 1009.6
20260901212046 62 38 1.0 2.0 0.00 0.00 0.00 85 1009.7
20260901211541 62 37 2.0 2.0 0.00 0.00 0.00 85 1009.7
20260901211038 62 31 0.0 3.0 0.00 0.00 0.00 84 1009.6
20260901210538 63 48 0.0 2.0 0.00 0.00 0.00 83 1009.6
20260901210034 63 104 2.0 3.0 0.00 0.00 0.00 83 1010.0
20260901205529 63 118 3.0 3.0 0.00 0.00 0.00 82 1009.7
20260901205024 64 122 2.0 2.0 0.00 0.00 0.00 81 1009.7
20260901204520 64 118 3.0 4.0 0.00 0.00 0.00 81 1009.6
20260901204015 64 155 2.0 3.0 0.00 0.00 0.00 81 1009.9
20260901203515 64 151 2.0 4.0 0.00 0.00 0.00 81 1009.8
20260901203010 64 121 4.0 5.0 0.00 0.00 0.00 81 1009.6
20260901202505 64 141 2.0 4.0 0.00 0.00 0.00 81 1009.7
20260901202000 64 117 0.0 4.0 0.00 0.00 0.00 80 1009.7
20260901201456 65 124 3.0 5.0 0.00 0.00 0.00 79 1009.6
20260901200956 65 130 2.0 3.0 0.00 0.00 0.00 79 1009.6
20260901200450 65 61 0.0 2.0 0.00 0.00 0.00 78 1009.6
20260901195949 65 125 3.0 4.0 0.00 0.00 0.00 78 1009.7
20260901195448 65 106 0.0 3.0 0.00 0.00 0.00 78 1009.7
20260901194943 65 103 2.0 4.0 0.00 0.00 0.00 78 1009.7
20260901194438 65 167 1.0 4.0 0.00 0.00 0.00 76 1009.5
20260901193935 66 214 3.0 6.0 0.00 0.00 0.00 75 1009.6
20260901193434 66 175 4.0 6.0 0.00 0.00 0.00 75 1009.7
20260901192933 68 137 4.0 6.0 0.00 0.00 0.00 72 1009.7
20260901192430 69 143 2.0 5.0 0.00 0.00 0.00 72 1009.9
20260901191925 67 174 2.0 6.0 0.00 0.00 0.00 75 1009.7
20260901191422 67 167 6.0 8.0 0.00 0.00 0.00 75 1009.7
20260901190917 67 122 2.0 3.0 0.00 0.00 0.00 75 1009.8
20260901190417 66 189 3.0 5.0 0.00 0.00 0.00 75 1009.9
20260901185914 66 147 2.0 5.0 0.00 0.00 0.00 76 1009.9
20260901185414 66 120 4.0 5.0 0.00 0.00 0.00 78 1009.8
20260901184903 68 134 3.0 4.0 0.00 0.00 0.00 73 1009.9
20260901184359 67 124 3.0 4.0 0.00 0.00 0.00 74 1009.6
20260901183854 67 123 2.0 6.0 0.00 0.00 0.00 75 1009.7
20260901183354 67 131 2.0 6.0 0.00 0.00 0.00 75 1009.7
20260901182850 67 146 3.0 5.0 0.00 0.00 0.00 76 1009.6
20260901182350 66 126 2.0 6.0 0.00 0.00 0.00 76 1009.6
20260901181844 66 198 1.0 5.0 0.00 0.00 0.00 76 1009.5
20260901181339 66 116 2.0 2.0 0.00 0.00 0.00 76 1009.6
20260901180838 65 269 0.0 2.0 0.00 0.00 0.00 78 1009.6
20260901180337 66 131 2.0 5.0 0.00 0.00 0.00 77 1009.6
20260901175836 66 146 2.0 3.0 0.00 0.00 0.00 76 1009.8
20260901175330 67 171 3.0 4.0 0.00 0.00 0.00 77 1009.6
20260901174826 65 68 0.0 3.0 0.00 0.00 0.00 80 1009.7
20260901174322 64 31 0.0 2.0 0.00 0.00 0.00 81 1009.6
20260901173817 64 104 2.0 4.0 0.00 0.00 0.00 82 1009.6
20260901173312 64 118 4.0 4.0 0.00 0.00 0.00 80 1009.4
20260901172809 63 145 2.0 5.0 0.00 0.00 0.00 81 1009.3
20260901172308 65 107 3.0 4.0 0.00 0.00 0.00 78 1009.5
20260901171806 65 116 2.0 4.0 0.00 0.00 0.00 81 1009.3
20260901171305 63 110 4.0 5.0 0.00 0.00 0.00 82 1009.5
20260901170804 62 83 1.0 2.0 0.00 0.00 0.00 86 1009.7
20260901170259 62 150 2.0 4.0 0.00 0.00 0.00 86 1009.6
20260901165758 60 178 3.0 3.0 0.00 0.00 0.00 90 1009.6
20260901165253 59 121 3.0 4.0 0.00 0.00 0.00 89 1009.6
20260901164749 59 146 2.0 3.0 0.00 0.00 0.00 90 1009.4
20260901164245 59 128 2.0 3.0 0.00 0.00 0.00 91 1009.5
20260901163739 58 72 1.0 2.0 0.00 0.00 0.00 93 1009.3
20260901163239 57 37 0.0 2.0 0.00 0.00 0.00 94 1009.5
20260901162734 57 35 0.0 2.0 0.00 0.00 0.00 95 1009.5
20260901162233 56 50 1.0 2.0 0.00 0.00 0.00 95 1009.4
20260901161732 56 26 2.0 2.0 0.00 0.00 0.00 96 1009.5
20260901161227 56 27 1.0 2.0 0.00 0.00 0.00 96 1009.5
20260901160723 56 29 0.0 5.0 0.00 0.00 0.00 95 1009.7
20260901160219 56 136 2.0 2.0 0.00 0.00 0.00 96 1009.6
20260901155717 56 109 1.0 2.0 0.00 0.00 0.00 96 1009.5
20260901155213 55 66 1.0 2.0 0.00 0.00 0.00 97 1009.5
20260901154708 55 54 2.0 2.0 0.00 0.00 0.00 97 1009.5
20260901154202 55 50 1.0 2.0 0.00 0.00 0.00 97 1009.4
20260901153657 55 38 2.0 2.0 0.00 0.00 0.00 97 1009.4
20260901153152 55 42 0.0 1.0 0.00 0.00 0.00 97 1009.5
20260901152646 54 68 2.0 4.0 0.00 0.00 0.00 98 1009.2
20260901152145 54 27 1.0 2.0 0.00 0.00 0.00 98 1009.4
20260901151641 54 13 2.0 3.0 0.00 0.00 0.00 98 1009.2
20260901151140 54 13 2.0 3.0 0.00 0.00 0.00 98 1009.3
20260901150639 54 69 2.0 4.0 0.00 0.00 0.00 98 1009.2
20260901150138 54 0 2.0 3.0 0.00 0.00 0.00 98 1009.2
20260901145636 54 19 1.0 2.0 0.00 0.00 0.00 98 1009.2
20260901145135 54 44 2.0 2.0 0.00 0.00 0.00 98 1009.1
20260901144631 54 10 2.0 4.0 0.00 0.00 0.00 98 1009.2
20260901144126 53 29 3.0 3.0 0.00 0.00 0.00 97 1009.1
20260901143621 53 0 2.0 3.0 0.00 0.00 0.00 95 1009.2
20260901143118 55 44 3.0 4.0 0.00 0.00 0.00 92 1009.1
20260901142614 56 72 2.0 3.0 0.00 0.00 0.00 90 1009.1
20260901142113 56 85 2.0 2.0 0.00 0.00 0.00 87 1009.3
20260901141607 57 77 2.0 4.0 0.00 0.00 0.00 86 1009.3
20260901141102 57 42 3.0 3.0 0.00 0.00 0.00 85 1009.3
20260901140601 57 64 0.0 2.0 0.00 0.00 0.00 85 1009.0
20260901140055 57 124 3.0 3.0 0.00 0.00 0.00 85 1009.1
20260901135555 57 84 1.0 2.0 0.00 0.00 0.00 85 1009.1
20260901135051 57 103 2.0 4.0 0.00 0.00 0.00 85 1009.1
20260901134546 57 55 0.0 2.0 0.00 0.00 0.00 85 1009.1
20260901134041 57 102 2.0 2.0 0.00 0.00 0.00 84 1009.0
20260901133539 57 112 1.0 2.0 0.00 0.00 0.00 83 1009.0
20260901133033 57 84 2.0 2.0 0.00 0.00 0.00 83 1009.1
20260901132532 57 68 2.0 2.0 0.00 0.00 0.00 83 1009.0
20260901132026 57 46 2.0 2.0 0.00 0.00 0.00 83 1008.9
20260901131521 58 46 2.0 2.0 0.00 0.00 0.00 82 1009.1
20260901131017 58 61 1.0 2.0 0.00 0.00 0.00 81 1009.0
20260901130516 58 49 2.0 2.0 0.00 0.00 0.00 81 1009.0